Regional Weather Roundup
Issued by NWS

Home | Current Version | Previous Version | Text Only | Print | Product List | Glossary Off
Versions: 1 2 3 4 5 6 7 8 9 10 11 12 13 14 15 16 17 18 19 20 21 22 23 24 25 26 27 28 29 30 31 32 33 34 35 36 37 38 39 40 41 42 43 44 45 46 47 48 49 50

000
ASUS45 KSLC 301310
RWRUT

UTAH REGIONAL WEATHER ROUNDUP
NATIONAL WEATHER SERVICE SALT LAKE CITY UT
700 AM MDT SAT AUG 30 2014

UTZ001>011-023>025-301400-

NORTHERN UTAH

CITY           SKY/WX    TMP DP  RH WIND       PRES   REMARKS
HILL AFB       MOCLDY    65  44  46 SE7       29.96R
LOGAN          CLEAR     55  49  80 E6        29.91F
OGDEN          PTCLDY    67  42  40 S14       29.92S
PROVO AIRPORT  MOCLDY    64  45  48 SE13      29.99S
SALT LAKE CITY MOCLDY    71  45  39 SE8       29.92R
VERNAL         PTCLDY    52  46  80 W5        30.10S
WENDOVER       CLOUDY    70  36  28 W10       29.92S
HEBER CITY     PTCLDY    46  43  87 SE3       30.06S
WEST JORDAN    CLEAR     72  48  43 S9        29.96S

$$

UTZ012>022-026-027-301400-

SOUTHERN UTAH

CITY           SKY/WX    TMP DP  RH WIND       PRES   REMARKS
BRYCE CANYON   CLOUDY    47  39  74 W6        30.27R
CEDAR CITY     PTCLDY    61  34  36 S8        30.09S
MILFORD        MOCLDY    66  36  32 SW9       30.03R
MOAB/CYNLANDS  CLEAR     64  45  49 SE10      30.04R
PRICE          PTCLDY    57  41  55 N5        30.12S
ST GEORGE      MOSUNNY   70  39  32 CALM      29.95R

$$

REGIONAL REPORTS     COLORADO/ARIZONA

CITY           SKY/WX    TMP DP  RH WIND       PRES   REMARKS
CRAIG, CO      PTCLDY    45  43  93 CALM      30.17S
GRAND JUNCTION PTCLDY    58  49  72 SE10      30.10R
RIFLE          PTCLDY    50  46  86 S3        30.18R
MONTROSE       CLEAR     52  44  74 S7        30.21R
CORTEZ         CLEAR     46  42  86 E7        30.20R
PAGE, AZ       MOCLDY    67  37  33 CALM      30.04R
GRAND CANYON   PTCLDY    50  41  71 VRB5      30.24
KINGMAN        CLEAR     67  35  30 SE8       29.96S
FLAGSTAFF      CLEAR     45  38  76 CALM      30.26S

$$

REGIONAL REPORTS    NEVADA/IDAHO/WYOMING

CITY           SKY/WX    TMP DP  RH WIND       PRES   REMARKS
LAS VEGAS, NV  PTCLDY    83  29  14 S9        29.79R
ELY            CLOUDY    57  37  47 SE7       30.10R
ELKO           PTCLDY    51  37  58 S5        30.02R
POCATELLO, ID  CLEAR     59  46  62 SW8       29.89R
BURLEY         PTCLDY    62  46  55 W16G28    29.88R
EVANSTON, WY   CLEAR     53  39  59 SW14      30.10S
ROCK SPRINGS   PTCLDY    54  38  54 SE10      30.10S

$$



USA.gov is the U.S. government's official web portal to all federal, state and local government web resources and services.